Weather History for Hamilton, OH

Change the Weather History Date:

Saturday, January 18, 2014

  Actual Average (KCVG) Record (KCVG)
Temperature  
Mean Temperature 20 °F 31 °F  
Max Temperature 27 °F 39 °F 70 °F (1929)
Min Temperature 12 °F 23 °F -25 °F (1977)
Degree Days  
Heating Degree Days 46 34  
Month to date heating degree days 612  
Since 1 July heating degree days 2531  
Cooling Degree Days 0 0  
Month to date cooling degree days 0  
Year to date cooling degree days 0  
Moisture  
Dew Point 17 °F    
Average Humidity 82    
Maximum Humidity 93    
Minimum Humidity 58    
Precipitation  
Precipitation 0.09 in 0.09 in 2.97 in (1876)
Month to date precipitation 1.76  
Year to date precipitation 1.76  
Snow  
Snow 0.00 in 0.20 in 1.70 in (1915)
Month to date snowfall 3.5  
Since 1 July snowfall 9.1  
Snow Depth -    
Sea Level Pressure  
Sea Level Pressure 29.95 in    
Wind  
Wind Speed 5 mph (South)    
Max Wind Speed 10 mph    
Max Gust Speed -    
Visibility 5 miles    
Events Fog , Snow    
T = Trace of Precipitation, MM = Missing Value Source: NWS Daily Summary

Daily Weather History Graph

Daily Weather History Graph

Search for Another Location

Airport:

Trip Planner

Search our weather history database for the weather conditions in past years. The results will help you decide how hot, cold, wet, or windy it might be!

Date:

Astronomy

Jan. 18, 2014 Rise Set
Actual Time 7:55 AM EST 5:42 PM EST
Civil Twilight 7:25 AM EST 6:11 PM EST
Nautical Twilight 6:52 AM EST 6:44 PM EST
Astronomical Twilight 6:20 AM EST 7:16 PM EST
Moon 8:22 PM EST (1/18) 8:55 AM EST (1/18)
Length of Visible Light 10h 45m
Length of Day
9h 47m
Waning Gibbous, 94% of the Moon is Illuminated
Jan 18
Waning Gibbous
Jan 24
Last Quarter
Jan 30
New
Feb 6
First Quarter
Feb 14
Full

Hourly Weather History & Observations

Time (EST) Temp. Windchill Dew Point Humidity Pressure Visibility Wind Dir Wind Speed Gust Speed Precip Events Conditions
12:53 AM 12.0 °F 4.1 °F 8.1 °F 84% 30.10 in 10.0 mi SW 4.6 mph - N/A   Overcast
1:53 AM 12.9 °F 3.8 °F 8.1 °F 81% 30.09 in 10.0 mi SW 5.8 mph - N/A   Overcast
2:53 AM 14.0 °F 8.2 °F 9.0 °F 80% 30.09 in 10.0 mi SW 3.5 mph - N/A   Overcast
3:53 AM 14.0 °F 6.5 °F 9.0 °F 80% 30.09 in 10.0 mi SW 4.6 mph - N/A   Overcast
4:53 AM 15.1 °F 6.4 °F 9.0 °F 77% 30.08 in 10.0 mi WSW 5.8 mph - N/A   Overcast
5:53 AM 15.1 °F 7.7 °F 9.0 °F 77% 30.07 in 10.0 mi SW 4.6 mph - N/A   Overcast
6:53 AM 14.0 °F 8.2 °F 9.0 °F 80% 30.08 in 10.0 mi Variable 3.5 mph - N/A   Overcast
7:53 AM 16.0 °F 8.8 °F 10.9 °F 81% 30.08 in 9.0 mi SSW 4.6 mph - N/A   Overcast
8:32 AM 17.1 °F 10.0 °F 10.9 °F 77% 30.04 in 9.0 mi SW 4.6 mph - N/A   Overcast
8:53 AM 18.0 °F 11.1 °F 12.0 °F 78% 30.09 in 3.0 mi SSW 4.6 mph - 0.00 in Snow Light Snow
9:00 AM 18.0 °F 9.8 °F 12.0 °F 78% 30.05 in 2.0 mi SW 5.8 mph - 0.00 in Snow Light Snow
9:16 AM 18.0 °F 9.8 °F 12.9 °F 81% 30.05 in 3.0 mi SW 5.8 mph - 0.00 in Snow Light Snow
9:29 AM 19.0 °F 12.3 °F 12.9 °F 77% 30.05 in 5.0 mi SSW 4.6 mph - 0.00 in Snow Light Snow
9:53 AM 19.9 °F 10.1 °F 12.9 °F 74% 30.09 in 7.0 mi SSW 8.1 mph - 0.00 in   Overcast
10:06 AM 19.9 °F 12.1 °F 12.9 °F 74% 30.05 in 9.0 mi SSW 5.8 mph - N/A   Overcast
10:13 AM 19.9 °F 8.6 °F 12.9 °F 74% 30.05 in 10.0 mi SSW 10.4 mph - N/A   Overcast
10:53 AM 21.9 °F 11.0 °F 12.9 °F 68% 30.08 in 10.0 mi SSW 10.4 mph - N/A   Mostly Cloudy
11:01 AM 21.9 °F 12.5 °F 12.9 °F 68% 30.04 in 10.0 mi SW 8.1 mph - N/A   Scattered Clouds
11:29 AM 23.0 °F 13.9 °F 14.0 °F 68% 30.03 in 9.0 mi SW 8.1 mph - 0.00 in Snow Light Snow
11:39 AM 23.0 °F 17.0 °F 14.0 °F 68% 30.02 in 9.0 mi SSW 4.6 mph - 0.00 in Snow Light Snow
11:53 AM 24.1 °F 14.4 °F 14.0 °F 65% 30.05 in 9.0 mi SSW 9.2 mph - 0.00 in   Scattered Clouds
12:53 PM 25.0 °F 16.3 °F 14.0 °F 63% 30.00 in 10.0 mi SSW 8.1 mph - N/A   Clear
1:53 PM 26.1 °F 17.6 °F 12.9 °F 58% 29.94 in 10.0 mi South 8.1 mph - N/A   Mostly Cloudy
2:53 PM 27.0 °F 20.5 °F 14.0 °F 58% 29.92 in 10.0 mi South 5.8 mph - N/A   Overcast
3:53 PM 26.1 °F 20.5 °F 16.0 °F 66% 29.94 in 2.0 mi Variable 4.6 mph - 0.00 in Snow Light Snow
4:01 PM 26.1 °F 19.4 °F 19.0 °F 75% 29.90 in 1.0 mi South 5.8 mph - 0.00 in Snow Light Snow
4:31 PM 25.0 °F 20.7 °F 19.9 °F 81% 29.89 in 0.8 mi Variable 3.5 mph - 0.01 in Snow Light Snow
4:45 PM 24.1 °F 16.0 °F 21.0 °F 88% 29.87 in 0.5 mi SE 6.9 mph - 0.01 in Fog , Snow Snow
4:53 PM 24.1 °F 15.2 °F 21.0 °F 88% 29.90 in 0.5 mi ESE 8.1 mph - 0.02 in Fog , Snow Snow
5:05 PM 24.1 °F 18.2 °F 21.0 °F 88% 29.86 in 1.5 mi Variable 4.6 mph - 0.00 in Snow Light Snow
5:07 PM 24.1 °F 16.0 °F 21.0 °F 88% 29.86 in 2.0 mi SE 6.9 mph - 0.00 in Snow Light Snow
5:17 PM 24.1 °F 17.0 °F 21.0 °F 88% 29.86 in 4.0 mi SE 5.8 mph - 0.00 in   Overcast
5:27 PM 24.1 °F 18.2 °F 21.0 °F 88% 29.86 in 1.8 mi ESE 4.6 mph - 0.00 in Snow Light Snow
5:33 PM 24.1 °F 18.2 °F 21.0 °F 88% 29.86 in 1.0 mi Variable 4.6 mph - 0.00 in Snow Light Snow
5:41 PM 24.1 °F 15.2 °F 21.0 °F 88% 29.86 in 0.8 mi SE 8.1 mph - 0.00 in Snow Light Snow
5:53 PM 24.1 °F 19.7 °F 21.9 °F 91% 29.90 in 1.5 mi Variable 3.5 mph - 0.01 in Snow Light Snow
6:22 PM 24.1 °F 18.2 °F 21.9 °F 91% 29.87 in 1.0 mi SE 4.6 mph - 0.01 in Snow Light Snow
6:39 PM 24.1 °F 18.2 °F 21.9 °F 91% 29.87 in 1.2 mi SE 4.6 mph - 0.02 in Snow Light Snow
6:53 PM 24.1 °F 19.7 °F 21.9 °F 91% 29.90 in 1.5 mi SE 3.5 mph - 0.02 in Snow Light Snow
7:31 PM 25.0 °F 18.1 °F 23.0 °F 92% 29.86 in 1.0 mi Variable 5.8 mph - 0.02 in Snow Light Snow
7:41 PM 25.0 °F 20.7 °F 23.0 °F 92% 29.86 in 1.2 mi SE 3.5 mph - 0.02 in Snow Light Snow
7:53 PM 25.0 °F 20.7 °F 23.0 °F 92% 29.88 in 1.8 mi SE 3.5 mph - 0.03 in Snow Light Snow
8:03 PM 25.0 °F 20.7 °F 23.0 °F 92% 29.85 in 2.5 mi SE 3.5 mph - 0.00 in Snow Light Snow
8:10 PM 25.0 °F 18.1 °F 23.0 °F 92% 29.85 in 3.0 mi SE 5.8 mph - 0.00 in Snow Light Snow
8:25 PM 25.0 °F 20.7 °F 23.0 °F 92% 29.84 in 2.5 mi Variable 3.5 mph - 0.00 in Snow Light Snow
8:48 PM 24.8 °F 20.5 °F 23.0 °F 93% 29.83 in 5.0 mi Variable 3.5 mph - 0.00 in Snow Light Snow
8:53 PM 25.0 °F 20.7 °F 23.0 °F 92% 29.86 in 8.0 mi SSE 3.5 mph - 0.00 in   Overcast
9:35 PM 26.1 °F 21.9 °F 23.0 °F 88% 29.82 in 2.5 mi Variable 3.5 mph - 0.00 in Snow Light Snow
9:45 PM 26.1 °F 20.5 °F 23.0 °F 88% 29.81 in 3.0 mi Variable 4.6 mph - 0.00 in Snow Light Snow
9:53 PM 26.1 °F - 23.0 °F 88% 29.84 in 2.5 mi Calm Calm - 0.00 in Snow Light Snow
10:03 PM 26.1 °F 21.9 °F 23.0 °F 88% 29.80 in 6.0 mi SE 3.5 mph - 0.00 in Snow Light Snow
10:53 PM 26.1 °F 20.5 °F 24.1 °F 92% 29.82 in 8.0 mi SE 4.6 mph - 0.00 in   Overcast
11:53 PM 27.0 °F - 24.1 °F 89% 29.81 in 10.0 mi Calm Calm - 0.01 in   Overcast